Dienstweiler (461 m) : 21.06.2018
Datum Zeit
(MESZ)
Temp.
(2 m)
Temp.
(20 cm)
Luftfeuchte Blattnässe Nieder-
schlag
Wind Zeit
(MESZ)
[°C] [°C] [%] [%] [mm] [m/s]
21.06.2018 08:00 19.3 19.0 85 9 0.0 0.8 08:00
  07:55 19.2 18.7 86 9 0.0 0.6 07:55
  07:50 19.0 18.4 87 9 0.0 0.8 07:50
  07:45 18.8 18.0 88 9 0.0 0.5 07:45
  07:40 18.6 17.7 89 9 0.0 0.3 07:40
  07:35 18.2 17.3 90 9 0.0 0.5 07:35
  07:30 18.1 17.1 92 9 0.0 0.3 07:30
  07:25 17.9 16.7 92 9 0.0 0.4 07:25
  07:20 17.9 16.7 93 9 0.0 0.3 07:20
  07:15 17.7 16.5 94 10 0.0 0.5 07:15
  07:10 17.5 16.2 95 10 0.0 0.4 07:10
  07:05 17.3 15.9 96 10 0.0 0.2 07:05
  07:00 17.0 15.8 99 10 0.0 0.2 07:00
  06:55 16.9 15.4 100 10 0.0 0.4 06:55
  06:50 16.7 15.1 100 10 0.0 0.6 06:50
  06:45 16.4 14.8 100 11 0.0 0.6 06:45
  06:40 16.4 14.7 100 11 0.0 0.4 06:40
  06:35 16.6 14.5 100 11 0.0 0.5 06:35
  06:30 16.3 14.2 100 12 0.0 0.5 06:30
  06:25 16.1 13.8 100 13 0.0 0.0 06:25
  06:20 15.8 13.6 100 14 0.0 0.0 06:20
  06:15 15.3 13.5 100 24 0.0 0.3 06:15
  06:10 15.3 13.5 100 27 0.0 0.5 06:10
  06:05 15.4 13.5 100 21 0.0 0.4 06:05
21.06.2018 06:00 15.1 13.4 100 38 0.0 0.7 06:00
  05:55 15.4 13.5 100 33 0.0 0.8 05:55
  05:50 15.3 13.4 100 31 0.0 0.7 05:50
  05:45 15.0 13.3 100 48 0.0 0.6 05:45
  05:40 14.9 13.2 100 61 0.0 0.6 05:40
  05:35 15.0 13.3 100 56 0.0 0.6 05:35
  05:30 14.9 13.3 100 64 0.0 0.7 05:30
  05:25 14.6 13.0 100 83 0.0 0.5 05:25
  05:20 14.6 12.8 100 89 0.0 0.4 05:20
  05:15 14.6 12.8 100 90 0.0 0.2 05:15
  05:10 14.9 12.7 100 89 0.0 0.0 05:10
  05:05 15.6 12.5 100 90 0.0 0.0 05:05
  05:00 15.8 12.5 100 92 0.0 0.0 05:00
  04:55 15.6 12.7 100 96 0.0 0.0 04:55
  04:50 15.7 12.8 100 95 0.0 0.0 04:50
  04:45 15.3 12.9 100 98 0.0 0.0 04:45
  04:40 15.2 13.0 100 100 0.0 0.0 04:40
  04:35 15.5 13.0 100 98 0.0 0.0 04:35
  04:30 15.3 13.1 100 95 0.0 0.0 04:30
  04:25 15.6 13.0 100 94 0.0 0.0 04:25
  04:20 16.0 13.1 100 92 0.0 0.0 04:20
  04:15 15.5 13.0 99 90 0.0 0.0 04:15
  04:10 16.1 13.3 100 65 0.0 0.1 04:10
  04:05 15.9 13.3 100 72 0.0 0.1 04:05
21.06.2018 04:00 15.7 13.6 98 54 0.0 0.5 04:00
  03:55 16.2 13.5 97 44 0.0 0.1 03:55
  03:50 16.7 13.5 100 48 0.0 0.0 03:50
  03:45 16.1 13.7 100 45 0.0 0.1 03:45
  03:40 16.0 13.8 100 44 0.0 0.2 03:40
  03:35 15.8 13.8 100 42 0.0 0.4 03:35
  03:30 15.8 13.9 100 39 0.0 0.7 03:30
  03:25 15.6 13.8 100 41 0.0 0.7 03:25
  03:20 15.9 13.9 99 38 0.0 0.6 03:20
  03:15 15.9 13.8 99 37 0.0 0.7 03:15
  03:10 16.1 13.9 98 37 0.0 0.7 03:10
  03:05 16.0 13.8 97 37 0.0 0.6 03:05
  03:00 16.3 13.8 96 36 0.0 0.6 03:00
  02:55 16.3 13.8 96 36 0.0 0.6 02:55
  02:50 16.2 13.9 96 34 0.0 0.7 02:50
  02:45 16.1 13.9 97 35 0.0 0.6 02:45
  02:40 16.3 14.0 96 33 0.0 0.7 02:40
  02:35 16.2 14.0 97 34 0.0 0.8 02:35
  02:30 16.0 13.9 95 37 0.0 0.5 02:30
  02:25 16.3 14.0 92 32 0.0 0.5 02:25
  02:20 16.7 14.0 92 30 0.0 0.5 02:20
  02:15 16.7 14.1 92 29 0.0 0.6 02:15
  02:10 16.8 14.2 91 29 0.0 0.7 02:10
  02:05 16.9 14.2 91 28 0.0 0.6 02:05
21.06.2018 02:00 16.9 14.2 91 28 0.0 0.7 02:00
  01:55 16.7 14.2 92 29 0.0 0.6 01:55
  01:50 16.9 14.2 92 29 0.0 0.7 01:50
  01:45 16.6 14.2 92 29 0.0 0.6 01:45
  01:40 16.8 14.3 92 28 0.0 0.6 01:40
  01:35 16.8 14.4 92 28 0.0 0.7 01:35
  01:30 16.8 14.5 92 28 0.0 0.8 01:30
  01:25 16.8 14.4 92 29 0.0 0.8 01:25
  01:20 17.1 14.6 91 29 0.0 0.7 01:20
  01:15 17.2 14.7 90 28 0.0 0.6 01:15
  01:10 17.4 14.7 91 25 0.0 0.6 01:10
  01:05 17.3 14.8 92 27 0.0 0.6 01:05
  01:00 17.3 15.0 93 26 0.0 0.7 01:00
  00:55 17.2 15.1 94 27 0.0 0.9 00:55
  00:50 17.2 15.2 96 27 0.0 0.9 00:50
  00:45 17.1 15.2 98 28 0.0 1.1 00:45
  00:40 16.8 15.1 99 33 0.0 1.0 00:40
  00:35 16.5 15.1 98 34 0.0 1.2 00:35
  00:30 16.8 15.0 94 32 0.0 1.3 00:30
  00:25 17.3 14.7 89 30 0.0 0.5 00:25
  00:20 17.7 14.9 89 28 0.0 0.4 00:20
  00:15 17.5 15.0 90 27 0.0 0.8 00:15
  00:10 17.5 15.1 89 27 0.0 1.0 00:10
  00:05 17.7 15.1 90 26 0.0 0.9 00:05
21.06.2018 00:00 17.5 15.2 90 26 0.0 1.0 00:00
20.06.2018 23:55 17.5 15.2 89 25 0.0 1.1 23:55
  23:50 17.6 15.3 89 26 0.0 1.2 23:50
  23:45 17.7 15.3 88 26 0.0 1.1 23:45
  23:40 18.2 15.2 88 27 0.0 0.7 23:40
  23:35 17.8 15.2 91 28 0.0 0.7 23:35
  23:30 17.7 15.3 89 26 0.0 1.1 23:30
  23:25 17.7 15.2 87 25 0.0 1.0 23:25
  23:20 17.9 15.2 86 25 0.0 0.8 23:20
  23:15 17.9 15.3 84 24 0.0 1.0 23:15
  23:10 18.3 15.4 82 21 0.0 1.1 23:10
  23:05 18.5 15.5 81 21 0.0 1.0 23:05
  23:00 18.7 15.5 81 19 0.0 1.0 23:00
  22:55 18.7 15.6 81 19 0.0 1.1 22:55
  22:50 18.6 15.5 78 21 0.0 1.1 22:50
  22:45 19.3 15.5 76 20 0.0 0.7 22:45
  22:40 19.5 15.6 76 19 0.0 0.8 22:40
  22:35 19.6 15.7 77 18 0.0 0.7 22:35
  22:30 18.9 15.7 80 21 0.0 0.8 22:30
  22:25 19.0 15.7 81 21 0.0 0.7 22:25
  22:20 18.6 15.7 81 22 0.0 0.9 22:20
  22:15 18.9 15.8 79 22 0.0 0.6 22:15
  22:10 19.2 15.9 79 19 0.0 0.7 22:10
  22:05 19.3 16.1 78 19 0.0 0.9 22:05
  22:00 19.4 16.1 77 19 0.0 0.9 22:00
20.06.2018 21:55 19.5 16.1 75 20 0.0 0.9 21:55
  21:50 20.0 16.2 72 19 0.0 0.7 21:50
  21:45 20.7 16.3 70 21 0.0 0.3 21:45
  21:40 20.8 16.5 70 19 0.0 0.1 21:40
  21:35 21.1 16.6 69 18 0.0 0.3 21:35
  21:30 20.7 16.7 71 18 0.0 0.3 21:30
  21:25 20.7 16.9 68 17 0.0 0.0 21:25
  21:20 21.6 17.2 65 17 0.0 0.0 21:20
  21:15 22.1 17.3 63 14 0.0 0.0 21:15
  21:10 22.4 17.4 62 12 0.0 0.0 21:10
  21:05 22.3 17.7 62 12 0.0 0.0 21:05
  21:00 22.7 18.0 61 12 0.0 0.0 21:00
  20:55 23.0 18.2 60 13 0.0 0.0 20:55
  20:50 23.3 18.4 58 11 0.0 0.0 20:50
  20:45 23.6 18.6 57 10 0.0 0.0 20:45
  20:40 23.7 18.9 57 8 0.0 0.1 20:40
  20:35 23.8 19.2 56 8 0.0 0.2 20:35
  20:30 24.1 19.4 55 8 0.0 0.0 20:30
  20:25 24.4 19.9 55 8 0.0 0.1 20:25
  20:20 24.5 20.0 55 8 0.0 0.1 20:20
  20:15 24.5 20.7 55 8 0.0 0.1 20:15
  20:10 25.0 21.4 53 8 0.0 0.4 20:10
  20:05 25.3 21.8 53 8 0.0 0.2 20:05
  20:00 25.6 22.4 53 8 0.0 0.3 20:00
20.06.2018 19:55 25.4 22.8 54 8 0.0 0.1 19:55
  19:50 25.7 23.4 53 8 0.0 0.2 19:50
  19:45 25.9 24.0 53 8 0.0 0.6 19:45
  19:40 26.1 24.7 52 8 0.0 0.3 19:40
  19:35 26.0 24.7 53 8 0.0 0.9 19:35
  19:30 26.0 24.8 55 8 0.0 0.5 19:30
  19:25 25.9 24.8 55 7 0.0 0.4 19:25
  19:20 25.1 23.9 57 7 0.0 0.1 19:20
  19:15 24.5 22.6 56 7 0.0 0.5 19:15
  19:10 24.9 23.4 53 7 0.0 1.0 19:10
  19:05 25.2 23.6 54 7 0.0 0.5 19:05
  19:00 25.4 24.0 52 7 0.0 0.6 19:00
  18:55 26.4 25.6 51 7 0.0 0.8 18:55
  18:50 26.5 25.9 51 8 0.2 1.0 18:50
  18:45 25.9 25.1 50 7 0.0 1.2 18:45
  18:40 27.0 26.6 48 8 0.0 0.9 18:40
  18:35 26.9 26.7 48 8 0.0 0.7 18:35
  18:30 27.3 27.5 47 8 0.0 0.5 18:30
  18:25 27.2 27.6 48 8 0.0 0.3 18:25
  18:20 27.4 27.8 48 8 0.0 0.7 18:20
  18:15 27.4 28.1 47 8 0.0 0.4 18:15
  18:10 27.3 27.9 46 8 0.1 0.8 18:10
  18:05 27.5 28.2 44 8 0.0 1.1 18:05
  18:00 27.6 28.6 45 8 0.0 0.0 18:00
20.06.2018 17:55 27.3 28.3 46 8 0.0 0.5 17:55
  17:50 27.4 28.5 45 8 0.0 1.1 17:50
  17:45 27.6 28.8 43 8 0.0 0.4 17:45
  17:40 27.8 29.2 43 8 0.0 0.2 17:40
  17:35 27.5 29.2 44 8 0.0 0.0 17:35
  17:30 27.2 29.2 43 8 0.0 0.6 17:30
  17:25 27.3 29.3 44 8 0.0 0.8 17:25
  17:20 27.6 29.8 43 8 0.0 0.9 17:20
  17:15 27.6 30.4 44 8 0.0 0.4 17:15
  17:10 27.6 29.8 44 8 0.0 0.3 17:10
  17:05 27.1 29.4 41 8 0.0 0.3 17:05
  17:00 27.4 30.0 42 8 0.0 0.6 17:00
  16:55 27.3 29.5 43 8 0.0 0.2 16:55
  16:50 27.2 29.8 43 8 0.0 0.2 16:50
  16:45 27.2 29.9 45 8 0.0 1.0 16:45
  16:40 27.5 30.1 45 8 0.0 0.9 16:40
  16:35 27.5 30.0 46 9 0.0 0.6 16:35
  16:30 27.5 30.4 44 9 0.0 0.7 16:30
  16:25 27.5 30.3 43 9 0.0 0.6 16:25
  16:20 27.5 30.1 43 9 0.0 0.4 16:20
  16:15 27.5 30.7 45 9 0.0 0.3 16:15
  16:10 27.2 30.0 45 9 0.0 0.9 16:10
  16:05 27.1 30.6 44 9 0.0 0.4 16:05
  16:00 27.5 30.6 47 9 0.0 0.6 16:00
20.06.2018 15:55 27.3 30.4 46 9 0.1 0.6 15:55
  15:50 26.7 29.6 45 9 0.0 0.4 15:50
  15:45 26.5 30.0 46 9 0.0 0.2 15:45
  15:40 26.5 30.3 47 9 0.0 1.0 15:40
  15:35 26.7 30.0 48 9 0.0 1.8 15:35
  15:30 26.9 30.1 48 9 0.0 1.4 15:30
  15:25 26.4 29.7 47 9 0.0 0.9 15:25
  15:20 26.7 30.2 48 9 0.0 1.0 15:20
  15:15 26.7 30.2 48 9 0.0 1.0 15:15
  15:10 26.9 30.5 48 9 0.0 0.6 15:10
  15:05 26.5 30.3 47 9 0.0 0.6 15:05
  15:00 26.4 29.9 47 9 0.0 0.2 15:00
  14:55 26.3 30.5 48 9 0.0 0.7 14:55
  14:50 26.8 31.1 51 9 0.0 0.5 14:50
  14:45 25.8 30.0 49 9 0.0 0.2 14:45
  14:40 26.0 29.8 50 9 0.0 0.2 14:40
  14:35 26.6 30.7 52 9 0.0 1.0 14:35
  14:30 26.8 30.7 52 9 0.0 0.9 14:30
  14:25 26.4 30.0 50 9 0.0 0.5 14:25
  14:20 26.1 30.2 48 9 0.0 1.1 14:20
  14:15 26.2 30.1 48 10 0.0 0.4 14:15
  14:10 25.7 29.9 49 10 0.0 0.1 14:10
  14:05 25.2 29.9 49 9 0.0 0.3 14:05
  14:00 25.8 29.7 50 9 0.0 0.1 14:00
20.06.2018 13:55 26.0 30.7 50 9 0.0 0.7 13:55
  13:50 26.3 30.7 51 9 0.0 0.6 13:50
  13:45 25.0 30.1 49 9 0.0 0.2 13:45
  13:40 25.7 29.9 51 9 0.0 0.8 13:40
  13:35 25.7 29.6 54 9 0.0 0.9 13:35
  13:30 25.7 29.7 55 9 0.0 0.9 13:30
  13:25 25.4 29.5 54 9 0.0 0.7 13:25
  13:20 25.5 28.9 53 9 0.0 0.5 13:20
  13:15 25.3 28.7 54 9 0.0 0.2 13:15
  13:10 25.1 28.4 53 9 0.0 0.8 13:10
  13:05 25.3 28.5 55 9 0.0 0.6 13:05
  13:00 25.5 28.9 57 9 0.0 0.2 13:00
  12:55 25.3 28.5 60 9 0.0 0.5 12:55
  12:50 24.1 26.4 61 9 0.0 0.2 12:50
  12:45 23.2 24.3 60 9 0.0 0.0 12:45
  12:40 24.2 27.0 59 9 0.0 0.4 12:40
  12:35 23.9 27.7 65 9 0.0 0.2 12:35
  12:30 23.2 24.9 68 9 0.0 0.0 12:30
  12:25 23.3 25.1 69 9 0.0 0.1 12:25
  12:20 22.6 23.8 67 9 0.0 0.0 12:20
  12:15 23.2 24.5 66 9 0.0 0.2 12:15
  12:10 24.2 26.8 67 9 0.0 0.8 12:10
  12:05 23.6 26.8 65 9 0.0 0.3 12:05
  12:00 23.0 26.5 67 9 0.0 0.6 12:00
20.06.2018 11:55 22.4 24.5 63 9 0.0 0.6 11:55
  11:50 23.9 28.1 61 9 0.0 0.7 11:50
  11:45 24.8 27.8 61 9 0.0 0.7 11:45
  11:40 23.9 27.5 59 9 0.0 0.5 11:40
  11:35 24.3 27.4 61 9 0.0 0.1 11:35
  11:30 24.2 27.6 61 9 0.0 0.2 11:30
  11:25 23.7 27.4 63 9 0.0 0.1 11:25
  11:20 23.3 27.2 66 9 0.0 0.3 11:20
  11:15 22.6 26.6 65 10 0.0 0.3 11:15
  11:10 23.4 26.1 65 10 0.0 0.9 11:10
  11:05 23.6 26.7 66 10 0.0 0.7 11:05
  11:00 23.4 26.2 66 10 0.0 0.8 11:00
  10:55 23.5 26.0 65 10 0.0 1.1 10:55
  10:50 23.5 26.0 65 10 0.0 0.8 10:50
  10:45 22.9 25.8 65 10 0.0 0.5 10:45
  10:40 22.7 26.2 66 10 0.0 0.6 10:40
  10:35 22.6 25.1 67 10 0.0 0.6 10:35
  10:30 22.8 25.0 67 10 0.0 0.8 10:30
  10:25 22.0 25.1 68 10 0.0 0.6 10:25
  10:20 22.8 25.1 69 10 0.0 0.9 10:20
  10:15 22.4 24.7 69 10 0.0 1.1 10:15
  10:10 22.6 24.7 70 10 0.0 1.0 10:10
  10:05 22.7 24.6 71 10 0.0 1.6 10:05
  10:00 22.5 24.3 71 10 0.0 1.5 10:00
20.06.2018 09:55 22.0 24.9 74 11 0.0 1.2 09:55
  09:50 21.5 23.5 76 11 0.0 0.6 09:50
  09:45 21.8 24.2 77 11 0.0 0.9 09:45
  09:40 21.4 24.4 77 11 0.0 0.9 09:40
  09:35 20.8 24.0 78 11 0.0 0.8 09:35
  09:30 20.8 23.9 79 11 0.0 0.8 09:30
  09:25 20.9 23.4 81 11 0.0 1.0 09:25
  09:20 20.0 23.0 80 11 0.0 0.8 09:20
  09:15 20.3 22.9 83 11 0.0 0.8 09:15
  09:10 19.8 22.8 83 11 0.0 0.7 09:10
  09:05 19.7 22.0 84 11 0.0 0.5 09:05
  09:00 19.5 21.8 86 11 0.0 0.7 09:00
  08:55 19.3 21.6 88 12 0.0 0.6 08:55
  08:50 19.1 21.0 89 18 0.0 0.5 08:50
  08:45 19.0 21.0 92 25 0.0 0.5 08:45
  08:40 18.5 20.6 93 28 0.0 0.6 08:40
  08:35 18.2 20.2 97 29 0.0 0.3 08:35
  08:30 18.2 19.3 100 31 0.0 0.3 08:30
  08:25 17.8 18.5 100 32 0.0 0.3 08:25
  08:20 17.4 17.9 100 33 0.0 0.2 08:20
  08:15 16.7 17.2 100 32 0.0 0.0 08:15
  08:10 16.2 16.9 100 33 0.0 0.0 08:10
  08:05 15.9 17.1 100 34 0.0 0.0 08:05
    Temp.
(2 m)
Temp.
(20 cm)
Luftfeuchte Blattnässe Nieder-
schlag
Wind  
[°C] [°C] [%] [%] [mm] [m/s]
 
  Ø 21.2 21.0 73 21 - 0.5 Ø
  Min. 14.6 12.5 - - - - Min.
  Max. 27.8 31.1 - - - - Max.
  - - - - 0.4 -
Quelle: Agrarmeteorologie Rheinland-Pfalz,
alle Angaben ohne Gewähr!
Zuletzt geändert: 21.06.18 - 08:19 Uhr